Wind_Speed
26 26 27 28 28 29 30 31 32 32 31 31 30 30 30 29 29 28 28 28 28 28 28 29 29 29 29 27 27 27 28 27 27 26 26 26 26 25 25 25 24 25 25 25
25 26 27 27 27 28 29 29 31 31 31 31 31 30 30 30 30 30 30 30 29 30 30 30 30 29 28 28 27 27 28 27 28 28 27 26 25 25 24 25 25 26 25 24
25 25 26 25 26 27 27 28 29 30 30 30 30 30 29 30 30 30 30 30 30 31 30 30 30 29 29 29 28 28 28 28 29 28 28 27 27 26 25 24 24 25 25 24
26 25 26 25 25 27 28 28 28 29 29 28 29 30 30 30 31 31 31 32 31 31 31 31 30 30 31 29 29 30 29 29 29 29 29 29 29 27 27 25 25 25 24 24
25 25 25 25 26 26 27 26 27 27 28 28 27 28 28 30 30 31 30 30 30 30 29 30 31 31 31 30 30 30 30 29 30 30 29 29 28 26 26 26 25 25 25 25
24 24 24 24 25 25 25 25 25 26 27 27 27 27 26 27 28 28 29 29 30 31 30 29 29 29 29 29 28 29 29 30 30 30 29 29 29 28 28 27 26 27 27 26
22 23 23 23 23 23 24 24 24 24 25 25 25 26 25 26 26 27 28 28 29 30 30 29 29 29 28 28 28 28 28 28 29 29 28 28 28 29 29 28 28 28 28 27
21 22 22 21 22 22 22 23 23 23 24 24 24 25 26 26 27 27 28 27 26 27 28 28 27 27 27 27 27 28 28 28 27 28 28 28 29 29 29 29 29 30 29 28
20 20 20 19 20 19 19 20 19 20 23 23 23 23 24 25 26 26 25 26 26 26 26 26 26 26 26 27 27 26 27 28 28 28 29 29 29 30 30 30 30 31 30 29
17 17 18 18 18 19 19 19 19 19 20 21 22 21 21 21 22 23 24 24 25 25 26 25 24 24 25 26 27 27 26 27 28 28 29 29 29 30 30 31 31 31 30 29
17 17 18 18 19 19 20 19 19 19 19 19 19 18 19 20 20 21 22 23 23 23 23 23 23 24 25 26 27 28 28 28 28 29 29 29 29 30 30 31 31 30 30 30
17 18 18 19 19 20 20 20 19 19 19 18 18 18 18 19 19 20 21 21 22 22 22 22 23 23 25 26 27 28 28 28 28 28 28 28 28 29 29 30 30 29 29 29
18 19 19 19 19 19 19 19 18 17 17 18 18 17 17 18 19 20 19 20 21 21 21 22 22 23 24 25 26 27 27 27 27 27 27 28 28 28 28 28 28 28 28 29
18 18 19 19 18 18 18 17 17 18 18 19 18 18 18 18 19 19 19 18 19 19 20 21 22 23 24 24 24 25 26 26 26 26 26 27 27 28 28 28 27 27 28 28
18 18 19 18 17 16 15 16 16 17 17 17 17 17 17 17 18 18 18 18 19 19 20 21 22 22 22 23 23 24 24 24 24 25 26 27 27 28 28 27 27 27 28 28
16 17 17 16 15 16 15 15 15 15 15 15 15 16 17 18 18 18 18 19 20 20 20 21 21 20 21 21 22 22 23 24 24 24 24 26 27 28 28 28 27 28 28 28
16 16 15 15 15 14 14 14 14 15 14 15 15 16 17 18 17 17 18 19 20 20 20 20 20 20 20 21 22 22 23 24 24 24 24 25 26 26 27 27 28 28 28 29
14 14 15 15 15 15 14 15 15 16 16 16 16 16 16 17 17 17 18 18 18 19 19 19 19 20 20 21 21 22 23 23 23 24 25 25 26 27 27 28 28 28 29 30
14 14 14 14 14 14 15 15 15 15 16 16 16 17 17 17 18 18 17 17 17 17 17 17 18 18 17 18 19 19 20 21 22 23 25 25 26 26 26 26 26 27 27 28
14 14 14 14 14 14 15 15 15 15 15 15 16 16 16 16 16 17 17 16 16 16 15 15 15 16 16 16 17 17 19 20 21 22 24 24 25 25 25 25 25 26 26 26
14 14 14 14 14 14 15 15 15 15 15 14 14 14 14 15 16 16 16 15 15 15 14 14 14 14 15 16 17 18 19 20 21 22 22 23 23 24 24 24 23 23 23 24
14 15 15 15 15 15 15 15 15 15 15 14 14 14 14 15 15 15 15 14 14 14 14 14 13 13 14 16 17 17 18 19 20 20 20 21 22 22 22 22 23 23 23 24
14 15 15 15 15 14 14 14 14 14 15 14 14 14 14 14 14 14 13 13 13 13 14 14 15 15 15 16 16 17 17 18 18 19 19 21 22 22 22 22 22 22 22 23
14 14 14 14 13 13 13 13 13 14 14 14 14 13 13 13 13 13 13 12 12 13 13 14 15 15 16 16 16 16 16 16 17 17 18 18 19 19 20 20 20 21 21 21
13 13 13 12 12 12 13 13 13 13 13 13 14 14 14 14 14 14 13 13 13 13 13 14 14 14 14 15 15 16 16 16 16 16 16 17 17 17 18 19 19 19 19 20
12 12 13 13 13 12 12 12 13 14 14 14 14 15 15 14 14 14 13 13 13 13 14 14 15 15 15 15 16 16 16 16 16 17 17 17 17 16 17 18 18 19 19 19
12 12 12 13 13 13 13 13 13 14 14 14 14 14 13 13 13 13 13 13 13 14 14 14 14 15 15 16 16 16 16 16 17 17 17 16 16 17 17 17 17 17 17 17
Wind_Direction
268 267 266 263 261 262 263 263 265 267 269 270 269 269 267 265 265 267 265 264 265 265 262 260 256 256 260 260 259 257 255 257 259 261 261 263 263 263 263 262 262 263 265 268
270 270 268 265 262 263 264 265 266 266 268 269 269 268 267 266 266 267 266 265 265 265 264 261 256 255 258 258 257 255 255 256 257 260 260 260 262 263 263 263 263 265 266 268
272 271 270 269 263 262 264 267 267 266 268 268 267 266 266 267 268 267 267 266 266 265 264 262 258 256 257 256 256 255 255 255 255 258 260 261 261 262 263 264 264 266 265 267
274 273 271 271 268 266 266 267 268 269 268 268 269 266 264 265 266 267 266 266 266 265 263 258 255 255 256 257 255 255 255 254 254 257 258 259 260 262 263 263 265 265 264 265
275 274 273 271 270 270 268 267 268 270 270 269 268 266 265 265 266 266 265 264 265 263 263 260 258 258 256 256 254 254 254 254 253 255 257 258 258 261 261 260 263 264 264 265
276 275 276 276 273 271 271 271 272 272 271 270 267 266 266 267 267 265 265 266 265 265 265 263 260 255 254 255 254 254 254 252 252 253 255 258 260 260 260 259 260 263 264 265
275 275 276 277 274 273 274 276 274 274 273 271 270 269 268 268 266 266 268 267 267 265 263 263 259 255 254 254 252 253 254 254 254 253 254 255 258 260 259 259 259 261 262 264
276 276 277 276 276 273 276 279 278 275 276 274 272 271 269 268 269 271 270 269 268 264 263 263 258 256 254 253 252 251 251 253 253 252 253 255 257 260 260 259 258 260 261 262
276 277 278 279 278 275 277 282 282 280 278 276 276 272 272 273 273 272 272 271 269 267 265 263 261 258 255 253 252 252 251 252 252 252 254 256 258 260 260 259 260 261 260 262
276 278 278 279 280 280 281 284 285 284 282 278 278 278 278 275 273 274 274 272 270 268 267 265 263 260 257 253 252 252 253 254 254 254 255 257 258 259 260 259 260 261 260 260
280 282 279 276 279 281 284 285 282 281 282 282 280 278 277 277 276 276 276 273 270 269 267 263 261 259 258 256 255 254 254 256 256 255 257 258 259 260 261 262 261 262 260 259
283 282 281 279 279 280 282 284 284 281 279 280 280 276 276 278 279 275 273 272 271 269 267 264 261 260 259 257 257 256 256 256 256 256 257 258 260 262 264 265 263 263 262 261
283 281 281 282 281 280 280 280 278 279 281 282 283 282 281 280 280 280 279 274 270 268 268 265 262 261 260 259 259 258 257 258 258 258 258 259 261 263 264 264 263 262 261 262
282 280 282 284 284 283 280 280 281 283 285 285 283 284 286 285 283 282 283 278 272 270 268 266 263 261 260 260 260 260 259 260 259 259 260 259 261 264 265 265 263 262 263 264
282 281 281 282 283 283 282 283 286 288 287 285 284 285 287 288 287 282 282 280 275 273 270 268 265 264 262 262 261 261 260 260 260 261 261 261 262 265 265 266 264 262 263 264
284 284 284 283 284 285 286 286 288 291 288 283 283 284 287 289 288 284 281 280 278 275 273 270 269 267 264 262 261 261 261 261 262 263 262 262 263 264 265 266 265 264 264 265
286 285 285 284 285 288 290 290 289 290 288 285 285 287 288 288 286 284 281 279 279 277 275 273 271 269 267 265 264 264 263 263 262 261 263 263 264 265 267 267 267 267 267 267
286 281 281 281 284 286 289 289 288 289 288 287 288 290 289 286 284 282 284 283 283 283 278 275 273 272 271 269 267 266 264 262 262 261 263 265 266 267 269 269 269 268 268 267
282 282 285 286 286 287 289 291 290 290 289 287 288 289 291 289 284 280 284 282 282 283 282 277 277 277 275 274 272 270 266 264 264 264 265 267 268 270 270 271 270 268 268 266
283 285 287 287 288 290 291 293 295 295 293 290 290 290 291 291 286 283 286 283 281 281 281 280 276 277 278 277 274 273 273 271 270 270 269 268 269 269 269 269 268 268 268 267
283 286 288 288 288 289 292 295 298 301 302 299 298 295 294 295 292 289 288 287 284 280 279 280 279 277 276 276 276 278 278 277 275 274 272 270 269 270 271 268 269 269 268 269
283 284 287 289 290 291 292 294 297 301 305 306 304 302 300 299 299 296 291 287 284 283 283 282 282 282 282 282 281 280 280 280 279 279 275 271 269 270 271 273 273 273 272 272
285 284 285 288 292 293 294 295 298 301 304 305 306 306 305 302 301 300 297 292 288 284 285 287 287 286 287 287 286 285 282 281 281 279 277 274 272 271 271 272 272 273 272 271
285 285 287 289 291 292 294 296 298 301 303 304 305 305 305 303 302 302 301 299 297 292 290 293 294 292 292 291 290 290 289 287 287 286 284 280 276 274 273 274 274 273 273 272
284 284 285 288 288 289 291 295 299 301 303 301 301 301 301 304 304 303 301 300 299 297 294 295 297 298 298 297 296 297 297 296 293 291 288 286 283 280 278 277 275 275 275 273
285 284 283 283 284 287 291 296 300 302 302 301 301 302 301 302 304 304 302 301 300 297 296 295 295 297 299 299 299 299 298 298 296 294 293 289 286 284 283 280 278 278 277 275
286 286 284 283 284 289 290 294 298 298 298 300 301 301 301 302 303 304 303 302 302 301 300 298 298 297 298 299 299 298 297 297 298 299 298 296 292 287 285 284 283 281 281 279
Height
5770 5770 5770 5770 5771 5771 5772 5772 5772 5773 5773 5774 5774 5774 5775 5775 5776 5776 5777 5778 5779 5780 5781 5782 5784 5785 5787 5788 5789 5790 5792 5794 5795 5796 5796 5797 5797 5798 5798 5799 5800 5800 5800 5801
5763 5763 5762 5762 5763 5764 5764 5764 5764 5764 5765 5765 5765 5765 5766 5767 5767 5768 5768 5769 5770 5771 5772 5773 5775 5776 5778 5779 5781 5783 5784 5786 5787 5788 5789 5789 5790 5790 5791 5792 5793 5793 5793 5794
5757 5756 5755 5755 5756 5756 5757 5757 5757 5757 5758 5757 5757 5757 5758 5758 5759 5759 5759 5760 5760 5761 5762 5763 5765 5767 5769 5770 5772 5774 5776 5777 5779 5780 5781 5782 5782 5782 5783 5784 5785 5786 5787 5787
5749 5750 5749 5751 5749 5749 5749 5750 5749 5749 5749 5749 5749 5749 5749 5750 5750 5750 5750 5750 5750 5751 5753 5754 5756 5758 5759 5761 5763 5765 5767 5769 5771 5772 5773 5774 5774 5774 5776 5777 5778 5778 5779 5780
5743 5742 5741 5743 5742 5741 5742 5743 5742 5741 5741 5741 5741 5741 5741 5741 5740 5740 5740 5741 5741 5742 5743 5744 5746 5748 5750 5752 5754 5756 5758 5760 5762 5763 5765 5766 5766 5767 5768 5769 5770 5771 5772 5773
5736 5735 5735 5737 5736 5734 5735 5735 5735 5734 5733 5733 5733 5733 5733 5732 5732 5731 5731 5732 5732 5733 5734 5735 5737 5738 5741 5743 5745 5747 5749 5751 5753 5754 5756 5757 5758 5760 5761 5762 5763 5764 5765 5765
5730 5729 5729 5729 5729 5729 5730 5730 5728 5727 5726 5726 5725 5725 5725 5724 5724 5723 5723 5723 5724 5724 5725 5726 5727 5729 5731 5733 5735 5737 5740 5742 5743 5745 5747 5749 5750 5751 5752 5754 5755 5756 5757 5758
5725 5724 5725 5723 5723 5724 5724 5722 5721 5720 5720 5719 5718 5717 5717 5717 5717 5716 5716 5715 5715 5715 5716 5717 5719 5720 5722 5724 5726 5728 5731 5733 5734 5737 5739 5740 5741 5742 5744 5745 5747 5748 5749 5750
5721 5721 5719 5718 5717 5717 5717 5716 5715 5714 5713 5712 5711 5710 5709 5709 5709 5709 5708 5708 5707 5708 5708 5710 5711 5712 5714 5716 5718 5720 5722 5724 5726 5728 5730 5731 5733 5734 5736 5737 5738 5739 5740 5742
5715 5714 5714 5713 5713 5712 5712 5711 5710 5709 5708 5706 5705 5704 5703 5703 5703 5702 5701 5700 5700 5701 5701 5702 5703 5705 5707 5709 5710 5712 5715 5717 5719 5720 5722 5724 5725 5726 5727 5729 5730 5731 5732 5733
5710 5710 5709 5708 5708 5707 5707 5706 5704 5704 5702 5701 5700 5699 5698 5697 5696 5695 5694 5694 5694 5694 5695 5696 5696 5698 5699 5701 5703 5705 5707 5709 5711 5712 5714 5716 5717 5718 5719 5720 5721 5723 5724 5725
5706 5705 5705 5704 5703 5702 5701 5700 5699 5698 5697 5696 5694 5693 5693 5692 5691 5689 5689 5688 5688 5688 5688 5689 5690 5691 5692 5693 5695 5697 5699 5701 5703 5704 5706 5707 5708 5710 5710 5712 5713 5714 5714 5716
5701 5700 5699 5699 5698 5697 5696 5695 5694 5693 5692 5691 5690 5689 5688 5687 5685 5684 5683 5682 5682 5682 5682 5682 5683 5684 5685 5686 5688 5689 5691 5693 5695 5696 5697 5699 5700 5701 5702 5703 5703 5705 5706 5707
5696 5696 5695 5694 5693 5692 5691 5690 5689 5688 5687 5686 5685 5684 5683 5681 5680 5679 5677 5677 5676 5676 5676 5676 5677 5677 5678 5679 5681 5682 5684 5686 5687 5688 5690 5691 5692 5693 5694 5694 5695 5696 5697 5698
5692 5691 5690 5689 5688 5687 5686 5685 5684 5683 5682 5681 5680 5679 5678 5676 5675 5674 5672 5671 5670 5670 5670 5670 5670 5671 5671 5672 5674 5675 5677 5679 5680 5681 5682 5683 5684 5685 5686 5686 5687 5688 5689 5689
5687 5686 5685 5684 5683 5682 5681 5681 5680 5678 5677 5676 5675 5674 5673 5671 5670 5669 5668 5666 5665 5664 5664 5664 5664 5664 5665 5665 5667 5668 5670 5671 5672 5673 5674 5675 5676 5677 5677 5678 5678 5679 5679 5680
5683 5682 5681 5680 5680 5679 5677 5676 5675 5674 5673 5672 5671 5669 5668 5666 5665 5664 5663 5661 5659 5658 5658 5657 5658 5658 5658 5659 5660 5661 5662 5663 5664 5666 5667 5667 5668 5668 5669 5669 5669 5670 5670 5670
5678 5677 5677 5676 5675 5674 5673 5672 5671 5670 5668 5667 5666 5665 5663 5662 5660 5659 5657 5655 5654 5652 5651 5651 5651 5652 5652 5653 5653 5654 5655 5656 5657 5658 5659 5660 5660 5660 5660 5660 5660 5660 5660 5661
5673 5673 5672 5672 5671 5670 5669 5668 5667 5665 5664 5663 5662 5660 5658 5657 5655 5653 5652 5650 5649 5648 5646 5646 5646 5646 5646 5646 5646 5647 5648 5649 5649 5650 5651 5651 5651 5651 5651 5651 5651 5650 5651 5651
5669 5668 5668 5667 5666 5665 5664 5663 5662 5661 5659 5658 5657 5655 5654 5652 5650 5648 5647 5645 5644 5643 5643 5642 5642 5641 5641 5641 5641 5642 5642 5642 5643 5643 5643 5643 5643 5643 5643 5643 5643 5642 5642 5642
5664 5664 5664 5663 5662 5661 5660 5659 5657 5656 5654 5653 5652 5650 5649 5647 5645 5643 5642 5640 5640 5639 5639 5638 5638 5637 5637 5637 5637 5637 5636 5636 5636 5636 5635 5636 5636 5636 5635 5635 5635 5634 5634 5634
5660 5660 5659 5658 5658 5657 5655 5654 5653 5652 5650 5649 5647 5646 5644 5642 5641 5639 5637 5636 5635 5635 5635 5634 5634 5633 5633 5632 5632 5631 5631 5630 5629 5629 5629 5629 5628 5628 5628 5627 5627 5627 5627 5626
5655 5655 5654 5654 5653 5652 5651 5650 5649 5648 5646 5644 5643 5641 5640 5638 5636 5635 5634 5632 5631 5631 5630 5630 5629 5629 5628 5628 5627 5626 5625 5625 5624 5623 5623 5622 5622 5621 5621 5621 5620 5620 5619 5619
5651 5650 5650 5649 5648 5647 5647 5646 5644 5643 5641 5640 5638 5637 5635 5634 5632 5631 5630 5629 5628 5627 5626 5626 5625 5624 5624 5623 5622 5621 5620 5619 5618 5617 5617 5616 5615 5615 5614 5614 5613 5613 5612 5612
5646 5646 5645 5644 5644 5643 5642 5641 5640 5638 5637 5635 5634 5632 5631 5629 5628 5627 5625 5625 5624 5623 5622 5622 5621 5620 5619 5619 5618 5616 5615 5614 5613 5612 5611 5610 5609 5609 5608 5608 5607 5607 5606 5606
5642 5641 5641 5640 5639 5639 5638 5637 5635 5634 5632 5631 5629 5628 5626 5625 5623 5622 5621 5620 5619 5619 5618 5617 5616 5616 5615 5614 5613 5612 5611 5609 5608 5607 5606 5604 5603 5603 5602 5602 5601 5601 5600 5599
5638 5637 5637 5636 5635 5635 5634 5633 5631 5630 5628 5627 5625 5624 5622 5621 5620 5618 5617 5616 5615 5614 5613 5613 5612 5611 5610 5609 5608 5607 5605 5604 5603 5602 5600 5599 5598 5597 5597 5596 5595 5595 5594 5593